Regional Weather Roundup
Issued by NWS

Home | Current Version | Previous Version | Text Only | Print | Product List | Glossary Off
Versions: 1 2 3 4 5 6 7 8 9 10 11 12 13 14 15 16 17 18 19 20 21 22 23 24 25 26 27 28 29 30 31 32 33 34 35 36 37 38 39 40 41 42 43 44 45 46 47 48 49 50

855
ASUS43 KLOT 202012
RWRIL

ILLINOIS REGIONAL WEATHER ROUNDUP
NATIONAL WEATHER SERVICE CHICAGO/ROMEOVILLE IL
200 PM CST MON FEB 20 2017

NOTE: "FAIR" INDICATES FEW OR NO CLOUDS BELOW 12,000 FEET WITH NO
SIGNIFICANT WEATHER AND/OR OBSTRUCTIONS TO VISIBILITY.

* THESE STATIONS ARE NOT UNDER NWS QUALITY CONTROL. THEY ALSO MAY NOT
  REPORT WEATHER SUCH AS PRECIPITATION OR FOG.

ILZ001-002-007-009-015-016-024-202100-
NORTHWEST ILLINOIS

CITY           SKY/WX    TMP DP  RH WIND       PRES   REMARKS
MOLINE         CLOUDY    69  51  52 S20G29    29.86F
STERLING*      PTSUNNY   68  54  60 SE9G18    29.92F
SAVANNA*       CLOUDY    65  53  63 SE14      29.88F
$$

ILZ003-004-008-010-011-017-018-202100-
NORTH CENTRAL ILLINOIS

CITY           SKY/WX    TMP DP  RH WIND       PRES   REMARKS
ROCKFORD       CLOUDY    68  51  54 S23G30    29.96F
FREEPORT*      CLOUDY    64  52  66 SE15      29.93F
ROCHELLE*      MOSUNNY   67  54  61 S23       29.95F
DE KALB*       CLOUDY    68  53  59 SE22      29.98F
PERU*          CLOUDY    67  51  54 S18G26    29.96F
$$

ILZ005-006-012>014-019>023-202100-
NORTHEAST ILLINOIS

CITY           SKY/WX    TMP DP  RH WIND       PRES   REMARKS
CHICAGO-OHARE  CLOUDY    69  48  47 S18       30.00F
CHICAGO-MIDWAY CLOUDY    68  46  45 S15G23    30.02F
AURORA         MOSUNNY   70  52  52 S20G29    29.99F
LANSING*       PTSUNNY   67  50  55 S14       30.04F
JOLIET*        MOSUNNY   70  52  53 S15G23    30.01F
WAUKEGAN       CLOUDY    54  43  66 SE15G21   30.01F HAZE
DUPAGE AIRPORT MOSUNNY   68  48  48 S20G26    29.99F
KANKAKEE*      MOSUNNY   68  49  49 SE17      30.03F
WHEELING       PTSUNNY   68  46  45 S17G24    30.02F
MORRIS*        MOSUNNY   70  52  52 S21G28    29.98F
ROMEOVILLE*    MOSUNNY   68  54  59 S21G28    30.00F
NORTHERLY ISL    N/A     52  40  63 E7          N/A
$$

LMZ740>746-202100-
SOUTHERN LAKE MICHIGAN

STATION/POSITION SKY/WX   TEMP    WIND        PRES    VSBY  WAVE
                          AIR SEA DIR/SP/G                  HT/PER
                          (F)     (DEG/KT/KT) (MB)    (MI)  (FT/S)
HARRISON CRIB              56     140/ 20/ 22   N/A
BURNHAM HARBOR             51      80/  2/  6   N/A
CALUMET HARBOR             66     150/ 12/ 19 1016.5F
BURNS HARBOR               65     170/ 15/ 21 1018.3F
MICHIGAN CITY              64     120/ 14/ 17   N/A
$$

ILZ025>027-034>036-040-047-049-050-058-095>099-202100-
WEST-CENTRAL ILLINOIS

CITY           SKY/WX    TMP DP  RH WIND       PRES   REMARKS
QUINCY         MOSUNNY   75  49  39 S17G35    29.85F
GALESBURG*     CLOUDY    70  53  54 SE16G26   29.88F
MACOMB*        MOSUNNY   73  52  46 S23G30    29.89F
JACKSONVILLE*  CLOUDY    73  53  48 SE21G28   29.91F
PITTSFIELD*    CLOUDY    74  54  49 SE13      29.89F
$$

ILZ028>032-037-038-041>044-048-051>054-059>061-202100-
CENTRAL ILLINOIS

CITY           SKY/WX    TMP DP  RH WIND       PRES   REMARKS
PONTIAC        MOSUNNY   69  53  55 S22G30    29.99F
BLOOMINGTON    CLOUDY    71  51  49 S25G32    29.98F
DECATUR        MOSUNNY   72  50  45 S20       29.99F
PEORIA         CLOUDY    71  51  49 S17G28    29.93F
LACON*         CLOUDY    69  52  54 S18G28    29.93F
LINCOLN*       PTSUNNY   73  52  47 S22G30    29.95F
SPRINGFIELD    MOSUNNY   74  50  42 S22G29    29.94F
TAYLORVILLE    CLOUDY    71  50  47 S20G26    29.97F
$$

ILZ033-039-045-046-055>057-062-063-202100-
EAST-CENTRAL ILLINOIS

CITY           SKY/WX    TMP DP  RH WIND       PRES   REMARKS
CHAMPAIGN      SUNNY     71  51  49 SE17      30.01F
RANTOUL*       CLOUDY    71  54  54 S18       30.02F
MATTOON        CLOUDY    69  53  56 S16G24    30.02F
PARIS*         MOSUNNY   68  52  58 S15       30.06F
$$

ILZ079-100>102-202100-
SOUTHWEST ILLINOIS

CITY           SKY/WX    TMP DP  RH WIND       PRES   REMARKS
ALTON          PTSUNNY   75  54  46 S16G23    29.96F
BELLEVILLE     SUNNY     75  55  49 SE10G28   29.95F
CAHOKIA*       MOSUNNY   78  52  40 S13       29.94F
SPARTA*        MOSUNNY   72  55  55 S14G22    29.99F
$$

ILZ064>066-069>071-074>076-080>082-084>086-088>090-092>094-202100-
SOUTH-CENTRAL ILLINOIS

CITY           SKY/WX    TMP DP  RH WIND       PRES   REMARKS
CARBONDALE     MOSUNNY   72  54  53 S14       30.00F
CAIRO*         MOSUNNY   72  55  53 S10       30.02F
EFFINGHAM*     CLOUDY    72  54  52 SE14G20   30.03F
MARION         MOSUNNY   75  54  46 S12       30.02F
MT. VERNON     SUNNY     75  52  44 SE15      30.01F
CENTRALIA*     SUNNY     75  54  47 S18G24    29.99F
SALEM*         SUNNY     74  50  42 S13G21    30.00F
METROPOLIS*    SUNNY     72  53  51 CALM      30.04F
$$

ILZ067-068-072-073-078-083-087-091-202100-
SOUTHEAST ILLINOIS

CITY           SKY/WX    TMP DP  RH WIND       PRES   REMARKS
LAWRENCEVILLE  CLOUDY    73  52  47 S16       30.05F
FLORA*         MOSUNNY   74  53  47 S15       30.03F
FAIRFIELD*     SUNNY     72  53  51 S10       30.02F
HARRISBURG*    SUNNY     73  56  54 S16       30.04F
ROBINSON*      MOSUNNY   71  52  50 S15       30.06F
CARMI*         SUNNY     71  55  57 S12G20    30.04F
$$

ABBREVIATIONS USED IN REMARKS
   TC - TEMPERATURE IN CELSIUS
  WCI - WIND CHILL INDEX
   HX - HEAT INDEX
  VSB - VISIBILITY
$$





USA.gov is the U.S. government's official web portal to all federal, state and local government web resources and services.